Torna al catalogo

IRIDIUM 33 DEB

AttivoPO
NORAD 37136·DEBRIS·🇺🇸 United States

Lanciato Sep 14, 1997 da Baikonur Cosmodrome

Loading…

Prossimi Passaggi (prossime 24 ore)

TLE

In scadenzaSource: Space-Track

Epoca: Sep 8, 2026, 04:29 UTC

1 37136U 97051XG  26251.18707864  .00000861  00000-0  32633-3 0  9994
2 37136  86.1720 218.9392 0074743 198.6623 161.1827 14.28474092683442

Traccia IRIDIUM 33 DEB in tempo reale con AllMySat

Download on the App Store